Location: Prostejov
(49.4670°N, 17.1170°E)
Time: 22:29:19
(UTC+01:00)

ISS - Visible Passes

Search period start: 25 March 2023 00:00
Search period end: 04 April 2023 01:00
Orbit: 414 x 422 km, 51.6° (Epoch: 25 March)

Date Brightness Start Highest point End Pass type
(mag) Time Alt. Az. Time Alt. Az. Time Alt. Az.
25 Mar -3.4 19:31:42 10° WNW 19:35:01 59° N 19:36:44 25° ENE visible
25 Mar -1.2 21:08:32 10° WNW 21:09:40 19° W 21:09:40 19° W visible
26 Mar -3.3 19:43:39 10° W 19:46:58 56° N 19:50:17 10° E visible
26 Mar -3.6 21:20:32 10° WNW 21:23:36 71° W 21:23:36 71° W visible
27 Mar -3.8 20:32:29 10° WNW 20:35:51 79° NNE 20:37:29 28° E visible
27 Mar -1.1 22:09:27 10° W 22:10:25 16° W 22:10:25 16° W visible
28 Mar -3.5 19:44:22 10° WNW 19:47:43 66° N 19:51:03 10° E visible
28 Mar -3.0 21:21:14 10° WNW 21:24:16 42° SW 21:24:16 42° SW visible
29 Mar -3.5 20:33:01 10° WNW 20:36:21 62° SSW 20:38:07 25° SE visible
29 Mar -0.7 22:10:46 10° WSW 22:11:02 11° WSW 22:11:02 11° WSW visible
30 Mar -1.9 21:22:00 10° W 21:24:35 21° SW 21:24:52 21° SSW visible
31 Mar -2.3 20:33:30 10° W 20:36:30 30° SSW 20:38:43 15° SSE visible
02 Apr -1.1 20:34:19 10° WSW 20:36:15 15° SW 20:38:11 10° S visible
